Location: Grieser Field
(39.7333°N, 81.7975°W)
Time: 22:22:18
(UTC-04:00)

MOS 1-B - Visible Passes

Search period start: 02 September 2014 00:00
Search period end: 12 September 2014 00:00
Orbit: 906 x 914 km, 99.1° (Epoch: 02 September)

Date Brightness Start Highest point End Pass type
(mag) Time Alt. Az. Time Alt. Az. Time Alt. Az.
02 Sep 6.0 02:58:31 10° NE 03:02:23 26° ENE 03:02:23 26° ENE visible
02 Sep 4.8 04:39:58 10° N 04:45:22 41° WNW 04:45:38 41° WNW visible
03 Sep 5.9 03:03:59 10° NE 03:07:58 29° ENE 03:07:58 29° ENE visible
03 Sep 5.0 04:45:39 10° N 04:50:56 37° WNW 04:51:14 37° WNW visible
04 Sep 5.8 03:09:27 10° NNE 03:13:33 32° ENE 03:13:33 32° ENE visible
04 Sep 5.1 04:51:21 10° N 04:56:29 34° WNW 04:56:49 34° WNW visible
05 Sep 5.6 03:14:57 10° NNE 03:19:09 35° ENE 03:19:09 35° ENE visible
05 Sep 5.2 04:57:04 10° N 05:02:02 31° WNW 05:02:24 30° WNW visible
06 Sep 5.5 03:20:28 10° NNE 03:24:44 38° ENE 03:24:44 38° ENE visible
06 Sep 5.4 05:02:47 10° N 05:07:35 28° WNW 05:07:59 27° WNW visible
07 Sep 5.4 03:26:00 10° NNE 03:30:19 41° ENE 03:30:19 41° ENE visible
07 Sep 5.5 05:08:32 10° N 05:13:08 25° WNW 05:13:34 25° WNW visible
08 Sep 5.3 03:31:32 10° NNE 03:35:54 44° ENE 03:35:54 44° ENE visible
08 Sep 5.6 05:14:18 10° NNW 05:18:40 23° WNW 05:19:09 22° WNW visible
09 Sep 5.2 03:37:05 10° NNE 03:41:29 48° NE 03:41:29 48° NE visible
09 Sep 5.7 05:20:05 10° NNW 05:24:12 21° WNW 05:24:44 20° WNW visible
10 Sep 5.1 03:42:39 10° NNE 03:47:04 50° NE 03:47:04 50° NE visible
10 Sep 5.8 05:25:53 10° NNW 05:29:43 19° WNW 05:30:19 18° WNW visible
11 Sep 5.0 03:48:14 10° NNE 03:52:39 53° NE 03:52:39 53° NE visible
11 Sep 5.9 05:31:44 10° NNW 05:35:15 17° WNW 05:35:54 16° WNW visible
